Weather History for KAAF - September, 2013

Change the Weather History Date:

Saturday, September 21, 2013

  Actual Average Record
Temperature  
Mean Temperature 81 °F 78 °F  
Max Temperature 87 °F 87 °F 93 °F (1988)
Min Temperature 74 °F 69 °F 56 °F (1981)
Degree Days  
Heating Degree Days 0    
Month to date heating degree days 0  
Since 1 July heating degree days 0  
Cooling Degree Days 16    
Month to date cooling degree days 360  
Year to date cooling degree days 2280  
Growing Degree Days 30 (Base 50)    
Moisture  
Dew Point 73 °F    
Average Humidity 76    
Maximum Humidity 88    
Minimum Humidity 63    
Precipitation  
Precipitation 2.07 in 0.21 in 3.04 in (1952)
Month to date precipitation 2.75 4.92  
Year to date precipitation 46.13 44.86  
Sea Level Pressure  
Sea Level Pressure 29.81 in    
Wind  
Wind Speed 8 mph (SSE)    
Max Wind Speed 20 mph    
Max Gust Speed 25 mph    
Visibility 8 miles    
Events Fog , Rain    
T = Trace of Precipitation, MM = Missing Value Source: NWS Daily Summary

Daily Weather History Graph

Daily Weather History Graph

Search for Another Location

Airport or City:

Trip Planner

Search our weather history database for the weather conditions in past years. The results will help you decide how hot, cold, wet, or windy it might be!

Date:

Astronomy

Sep. 21, 2013 Rise Set
Actual Time 7:28 AM EDT 7:37 PM EDT
Civil Twilight 7:04 AM EDT 8:01 PM EDT
Nautical Twilight 6:36 AM EDT 8:29 PM EDT
Astronomical Twilight 6:08 AM EDT 8:57 PM EDT
Moon 9:02 PM EDT (9/21) 9:32 AM EDT (9/21)
Length of Visible Light 12h 57m
Length of Day
12h 09m
Waning Gibbous, 94% of the Moon is Illuminated
Sep 21
Waning Gibbous
Sep 26
Last Quarter
Oct 4
New
Oct 11
First Quarter
Oct 18
Full

Hourly Weather History & Observations

Time (EDT) Temp. Heat Index Dew Point Humidity Pressure Visibility Wind Dir Wind Speed Gust Speed Precip Events Conditions
12:53 AM 79.0 °F - 69.1 °F 72% 29.91 in 10.0 mi SSE 3.5 mph - N/A   Clear
1:53 AM 80.1 °F 82.9 °F 69.1 °F 69% 29.89 in 10.0 mi SSE 5.8 mph - N/A   Clear
2:53 AM 80.1 °F 82.7 °F 68.0 °F 67% 29.87 in 10.0 mi SSE 5.8 mph - N/A   Clear
3:53 AM 81.0 °F 83.8 °F 68.0 °F 65% 29.85 in 10.0 mi SSE 9.2 mph - N/A   Clear
4:53 AM 81.0 °F 84.1 °F 69.1 °F 67% 29.85 in 10.0 mi South 6.9 mph - N/A   Clear
5:53 AM 82.0 °F 86.3 °F 71.1 °F 69% 29.85 in 10.0 mi South 9.2 mph - N/A   Clear
6:53 AM 82.0 °F 86.7 °F 72.0 °F 71% 29.84 in 10.0 mi South 10.4 mph - N/A   Clear
7:53 AM 82.0 °F 86.7 °F 72.0 °F 71% 29.86 in 10.0 mi SSW 9.2 mph - N/A   Mostly Cloudy
8:53 AM 84.0 °F 90.2 °F 73.0 °F 69% 29.85 in 10.0 mi South 11.5 mph - N/A   Clear
9:53 AM 84.9 °F 91.4 °F 73.0 °F 67% 29.85 in 10.0 mi South 12.7 mph - N/A   Clear
10:53 AM 87.1 °F 95.4 °F 73.9 °F 65% 29.86 in 10.0 mi South 12.7 mph - N/A   Partly Cloudy
11:53 AM 86.0 °F 93.8 °F 73.9 °F 67% 29.86 in 10.0 mi South 11.5 mph - N/A   Partly Cloudy
12:53 PM 87.1 °F 95.4 °F 73.9 °F 65% 29.85 in 10.0 mi SSW 10.4 mph - N/A   Scattered Clouds
1:53 PM 87.1 °F 95.4 °F 73.9 °F 65% 29.82 in 10.0 mi SSW 15.0 mph - N/A   Partly Cloudy
2:22 PM 82.4 °F 90.9 °F 77.0 °F 84% 29.80 in 5.0 mi SW 9.2 mph 20.7 mph 0.00 in Rain Light Rain
2:38 PM 84.2 °F 90.9 °F 73.4 °F 70% 29.80 in 10.0 mi WSW 12.7 mph - 0.00 in   Mostly Cloudy
2:53 PM 84.9 °F 93.3 °F 75.0 °F 72% 29.81 in 10.0 mi SW 12.7 mph - 0.00 in   Scattered Clouds
3:53 PM 84.0 °F 91.2 °F 73.9 °F 72% 29.78 in 10.0 mi SSW 9.2 mph - N/A   Overcast
4:53 PM 84.0 °F 91.2 °F 73.9 °F 72% 29.77 in 10.0 mi SW 9.2 mph - N/A   Scattered Clouds
5:53 PM 82.9 °F 90.8 °F 75.9 °F 79% 29.75 in 10.0 mi WSW 8.1 mph - N/A   Mostly Cloudy
6:16 PM 80.6 °F 86.2 °F 75.2 °F 84% 29.76 in 10.0 mi NE 4.6 mph - N/A   Mostly Cloudy
6:53 PM 79.0 °F - 73.9 °F 84% 29.76 in 10.0 mi NE 5.8 mph - N/A   Overcast
7:13 PM 78.8 °F - 73.4 °F 83% 29.76 in 10.0 mi ENE 5.8 mph - 0.00 in Rain Light Rain
7:23 PM 78.8 °F - 73.4 °F 83% 29.76 in 10.0 mi NE 4.6 mph - 0.00 in Rain Light Rain
8:53 PM 77.0 °F - 73.0 °F 88% 29.76 in 10.0 mi NE 6.9 mph - 0.00 in   Scattered Clouds
9:03 PM 77.0 °F - 73.4 °F 89% 29.76 in 10.0 mi ENE 6.9 mph - N/A   Mostly Cloudy
9:45 PM 75.2 °F - 73.4 °F 94% 29.76 in 7.0 mi NE 6.9 mph - 0.04 in Rain Light Rain
9:53 PM 75.9 °F - 73.0 °F 91% 29.76 in 10.0 mi NE 6.9 mph - 0.04 in Rain Light Rain
10:05 PM 75.2 °F - 73.4 °F 94% 29.78 in 10.0 mi NNW 9.2 mph - 0.00 in Rain Light Rain
10:14 PM 75.2 °F - 73.4 °F 94% 29.79 in 1.8 mi NW 19.6 mph 25.3 mph 0.05 in Rain Heavy Rain
10:24 PM 75.2 °F - 71.6 °F 89% 29.79 in 0.5 mi NNE 11.5 mph - 0.67 in Fog , Rain Heavy Rain
10:37 PM 73.4 °F - 71.6 °F 94% 29.79 in 1.0 mi East 8.1 mph - 1.51 in Rain Heavy Rain
10:41 PM 73.4 °F - 71.6 °F 94% 29.79 in 2.0 mi East 6.9 mph - 1.55 in Rain Heavy Rain
10:49 PM 75.2 °F - 71.6 °F 89% 29.80 in 3.0 mi SE 5.8 mph - 1.59 in Rain Heavy Rain
10:53 PM 75.0 °F - 72.0 °F 90% 29.80 in 2.5 mi ESE 4.6 mph - 1.62 in Rain Heavy Rain
11:05 PM 75.2 °F - 71.6 °F 89% 29.80 in 1.8 mi ESE 4.6 mph - 0.17 in Rain Heavy Rain
11:12 PM 75.2 °F - 71.6 °F 89% 29.79 in 2.5 mi ESE 5.8 mph - 0.23 in Rain Heavy Rain
11:27 PM 75.2 °F - 71.6 °F 89% 29.80 in 6.0 mi SE 6.9 mph - 0.33 in Rain Rain
11:53 PM 75.0 °F - 72.0 °F 90% 29.79 in 8.0 mi ESE 4.6 mph - 0.36 in Rain Rain